Total_Precipitation_Accumulation
0.03 0.07 0.11 0.11 0.08 0.08 0.07 0.06 0.06 0.08 0.13 0.24 0.35 0.40 0.40 0.41 0.46 0.48 0.43 0.43 0.55 0.68 0.77 0.75 0.69 0.64 0.67 0.81 0.94 1.14 1.35 1.40 1.42 1.52 1.64 1.79 1.96 2.01 2.02 2.03 1.97 2.07 2.03 1.94
0.05 0.07 0.09 0.07 0.07 0.07 0.06 0.06 0.06 0.09 0.15 0.25 0.36 0.40 0.36 0.36 0.37 0.42 0.47 0.49 0.56 0.75 0.94 0.99 0.98 0.95 0.98 1.09 1.28 1.55 1.83 1.92 2.00 2.07 2.14 2.21 2.26 2.26 2.32 2.32 2.26 2.16 2.07 2.07
0.11 0.10 0.11 0.09 0.09 0.08 0.08 0.09 0.10 0.14 0.21 0.32 0.45 0.42 0.47 0.46 0.44 0.54 0.60 0.65 0.69 0.85 0.99 1.11 1.13 1.15 1.25 1.33 1.52 1.75 1.92 2.01 2.12 2.20 2.28 2.33 2.35 2.37 2.32 2.31 2.26 2.16 2.16 2.20
0.18 0.21 0.22 0.13 0.15 0.17 0.19 0.22 0.25 0.25 0.31 0.38 0.46 0.48 0.53 0.55 0.53 0.55 0.66 0.79 0.82 0.92 1.02 1.08 1.18 1.30 1.39 1.43 1.49 1.73 1.90 2.00 2.03 2.07 2.12 2.25 2.39 2.36 2.25 2.22 2.20 2.18 2.16 2.06
0.31 0.28 0.29 0.28 0.26 0.27 0.35 0.42 0.38 0.51 0.58 0.53 0.54 0.58 0.60 0.61 0.76 0.74 0.71 0.77 0.83 0.95 1.01 1.09 1.15 1.20 1.17 1.22 1.34 1.48 1.56 1.67 1.72 1.84 2.01 2.14 2.23 2.27 2.28 2.22 2.07 1.97 1.89 1.84
0.44 0.45 0.43 0.42 0.45 0.36 0.40 0.70 0.69 0.75 0.83 0.78 0.77 0.90 0.85 0.63 0.63 0.69 0.72 0.74 0.80 0.93 0.99 1.06 1.10 1.12 1.15 1.23 1.40 1.58 1.71 1.78 1.86 1.95 2.08 2.10 2.20 2.29 2.29 2.23 2.18 2.14 2.00 1.93
0.48 0.52 0.54 0.48 0.44 0.45 0.74 1.01 1.00 1.07 1.09 0.99 1.02 1.02 0.92 0.73 0.66 0.67 0.73 0.76 0.79 0.90 1.03 1.08 1.13 1.27 1.36 1.45 1.57 1.70 1.76 1.79 1.81 1.88 1.98 2.07 2.21 2.19 2.23 2.21 2.14 2.01 1.87 1.78
0.68 0.85 0.98 0.74 0.65 0.85 1.02 0.80 0.85 1.03 1.23 1.24 1.17 1.07 0.95 0.81 0.69 0.64 0.61 0.67 0.81 0.91 1.02 1.13 1.25 1.41 1.52 1.54 1.59 1.68 1.82 1.88 1.86 1.91 1.95 1.98 2.03 2.00 2.00 1.99 1.91 1.84 1.80 1.76
1.00 1.14 1.05 0.88 0.90 0.86 0.94 1.07 1.13 1.22 1.40 1.41 1.26 1.11 1.04 0.92 0.77 0.69 0.68 0.72 0.80 0.90 1.03 1.13 1.26 1.41 1.54 1.61 1.71 1.78 1.86 1.95 2.01 2.03 2.02 2.07 2.15 2.17 2.06 1.96 1.88 1.80 1.72 1.57
1.20 1.34 1.17 1.01 0.98 0.96 1.03 1.21 1.26 1.23 1.23 1.22 1.16 1.08 1.16 1.17 0.99 0.93 0.92 0.91 0.91 0.96 1.00 1.10 1.23 1.38 1.51 1.57 1.65 1.80 1.87 1.89 1.98 2.07 2.13 2.15 2.16 2.11 2.00 1.88 1.78 1.70 1.60 1.53
1.42 1.62 1.55 1.37 1.24 1.16 1.17 1.14 1.22 1.15 1.17 1.15 1.11 1.06 1.11 1.22 1.24 1.15 1.02 0.97 0.98 1.02 1.05 1.10 1.20 1.30 1.50 1.60 1.64 1.72 1.85 1.90 1.89 1.89 1.95 2.00 2.01 1.95 1.83 1.73 1.65 1.57 1.47 1.44
1.75 1.75 1.85 1.73 1.43 1.28 1.34 1.29 1.24 1.19 1.26 1.29 1.22 1.14 1.13 1.24 1.26 1.21 1.10 1.02 1.01 1.04 1.07 1.11 1.20 1.32 1.40 1.58 1.77 1.85 1.84 1.77 1.69 1.60 1.58 1.60 1.58 1.60 1.64 1.52 1.51 1.40 1.31 1.25
1.49 1.73 1.79 1.63 1.45 1.49 1.49 1.47 1.44 1.41 1.37 1.37 1.43 1.37 1.24 1.20 1.20 1.15 1.12 1.10 1.06 1.07 1.10 1.17 1.26 1.31 1.31 1.36 1.53 1.71 1.71 1.62 1.55 1.51 1.49 1.40 1.34 1.34 1.39 1.38 1.31 1.23 1.24 1.17
1.34 1.55 1.77 1.65 1.59 1.57 1.51 1.56 1.55 1.57 1.57 1.49 1.50 1.48 1.36 1.27 1.21 1.18 1.16 1.06 0.97 0.96 1.02 1.08 1.15 1.24 1.29 1.29 1.36 1.45 1.52 1.58 1.46 1.37 1.41 1.38 1.33 1.29 1.30 1.31 1.30 1.20 1.16 1.15
1.33 1.36 1.46 1.46 1.46 1.52 1.46 1.45 1.53 1.64 1.71 1.69 1.61 1.52 1.40 1.36 1.30 1.20 1.08 0.99 0.97 1.00 0.96 0.98 1.04 1.08 1.12 1.21 1.30 1.30 1.35 1.39 1.36 1.34 1.33 1.32 1.30 1.26 1.23 1.22 1.25 1.19 1.09 1.12
1.34 1.22 1.24 1.43 1.50 1.50 1.55 1.55 1.53 1.50 1.45 1.46 1.47 1.46 1.41 1.34 1.25 1.15 1.06 1.03 1.07 1.11 1.06 1.00 0.99 1.00 0.99 1.04 1.18 1.21 1.20 1.34 1.27 1.27 1.29 1.28 1.30 1.31 1.26 1.27 1.28 1.24 1.15 1.13
1.31 1.25 1.29 1.39 1.42 1.48 1.54 1.45 1.38 1.32 1.31 1.28 1.27 1.25 1.23 1.27 1.24 1.18 1.15 1.11 1.08 1.14 1.14 1.13 1.09 1.02 1.02 1.06 1.14 1.16 1.09 1.11 1.16 1.10 1.11 1.15 1.17 1.23 1.24 1.24 1.24 1.20 1.12 1.11
1.21 1.13 1.23 1.34 1.34 1.40 1.30 1.22 1.16 1.07 1.08 1.15 1.21 1.22 1.17 1.15 1.11 1.13 1.15 1.09 1.03 1.06 1.10 1.12 1.06 1.00 0.98 1.02 1.06 1.12 1.07 0.99 0.99 1.03 1.15 1.17 1.20 1.23 1.26 1.22 1.21 1.22 1.22 1.20
1.11 1.08 1.10 1.11 1.12 1.18 1.07 1.06 1.05 1.03 0.97 1.02 1.13 1.17 1.16 1.13 1.07 0.99 1.01 1.07 1.11 1.11 1.04 0.94 0.94 0.87 0.90 0.98 1.05 1.08 1.12 1.09 1.07 1.09 1.20 1.28 1.29 1.34 1.34 1.32 1.30 1.29 1.26 1.23
1.15 1.18 1.12 1.03 1.01 1.09 1.07 1.03 0.96 0.95 0.92 0.94 1.06 1.13 1.13 1.07 1.04 1.04 1.09 1.13 1.14 1.02 0.83 0.79 0.74 0.76 0.76 0.83 0.92 0.94 1.04 1.09 1.09 1.13 1.18 1.21 1.24 1.27 1.26 1.24 1.23 1.24 1.28 1.34
1.31 1.21 1.12 1.05 0.95 0.94 1.04 1.05 1.02 1.00 0.94 0.94 1.03 1.06 1.07 1.02 0.94 0.95 1.06 1.11 1.03 0.84 0.72 0.79 0.77 0.73 0.67 0.72 0.79 0.82 0.92 1.03 1.13 1.15 1.13 1.16 1.14 1.09 1.09 1.15 1.22 1.31 1.34 1.37
1.32 1.14 1.00 0.92 0.95 1.02 1.00 1.00 1.00 1.03 1.08 1.16 1.13 1.07 1.05 1.04 0.96 0.96 0.96 1.00 0.91 0.87 0.71 0.67 0.73 0.79 0.75 0.66 0.66 0.83 0.93 1.00 1.06 1.10 1.08 1.11 1.17 1.14 1.09 1.14 1.26 1.30 1.34 1.34
1.19 1.07 1.02 0.98 0.96 1.00 1.00 1.00 1.01 1.01 1.06 1.18 1.24 1.21 1.17 1.11 1.06 1.05 1.08 0.96 0.84 0.83 0.75 0.73 0.78 0.77 0.74 0.67 0.69 0.76 0.79 0.83 0.86 0.90 0.93 1.01 1.13 1.18 1.16 1.11 1.08 1.10 1.19 1.26
1.18 1.10 1.05 0.98 0.93 1.00 1.11 1.12 1.07 1.01 0.98 1.04 1.10 1.13 1.17 1.15 1.13 1.06 1.12 1.17 1.04 0.88 0.80 0.85 0.79 0.69 0.70 0.70 0.74 0.75 0.74 0.74 0.77 0.85 0.93 1.00 1.12 1.21 1.18 1.11 1.00 0.95 1.03 1.18
1.23 1.16 1.11 1.09 1.09 1.08 1.08 1.10 1.06 1.01 0.96 0.99 0.95 0.98 1.05 1.11 1.19 1.21 1.18 1.12 1.10 1.00 0.86 0.80 0.75 0.68 0.63 0.67 0.72 0.74 0.74 0.73 0.74 0.78 0.84 0.92 0.96 1.02 1.08 1.08 1.01 0.93 0.91 1.00
1.29 1.20 1.14 1.16 1.19 1.11 1.05 1.09 1.18 1.19 1.14 1.12 1.04 0.95 0.95 1.02 1.11 1.18 1.17 1.08 0.95 0.85 0.78 0.76 0.69 0.65 0.59 0.64 0.69 0.75 0.78 0.80 0.78 0.73 0.71 0.74 0.73 0.71 0.73 0.78 0.83 0.86 0.87 0.83
1.29 1.19 1.12 1.07 1.02 0.97 1.02 1.08 1.13 1.20 1.20 1.14 1.05 0.94 0.94 1.02 1.07 1.06 0.99 0.95 0.85 0.78 0.68 0.58 0.54 0.55 0.54 0.54 0.56 0.58 0.62 0.64 0.67 0.75 0.86 0.91 0.74 0.60 0.58 0.62 0.66 0.70 0.74 0.73